THORAD AGENA D DEB, 4154

Orbit data source: Space-Track

THORAD AGENA D DEB, 4154 is space debris in LEO originally from a launch on Tue, 30 Sep 1969 UTC launched from the Air Force Western Test Range (AFWTR). Debris objects in space refer to the collection of defunct objects orbiting the Earth. Examples of debris include non-operational satellites, rocket bodies, and fragments generated from explosions, collisions, or faulty payload assembly.

Loading next visibility...
Identifier
4154, 1969-082W
Orbit
LEO
Country
Flag of USUS
Related business
Manufacturer
Unknown
Mission
Spacecraft
Bus & Motor
Unknown
Mass
Unknown
Launch date (UTC)
1969-09-30 (57 years ago)
Launch vehicle
Unknown
Launch site
Air Force Western Test Range (AFWTR)
Object type
Payload
Rocket body
Debris
Shape & HBR
Unknown shape, 0.4 m
Radar Cross Section
Medium (>0.1 m² and <1 m²)

Expand to show TLE details & history
Last TLE update: 22 hours ago

TLE from 22 hours ago
0 THORAD AGENA D DEB
1 04154U 69082W   26173.63561768 -.00000141  00000-0 -52781-4 0  9995
2 04154  70.0677 147.7170 0045104  81.2176 279.4039 14.06129941650270
Epoch: 2026-06-22T15:15Z
TLE epoch observation values (Epoch: 2026-06-22T15:15:17.367Z)
Latitude
-0.00008°
Longitude
8.07591°
Altitude
869.773 km
Speed
7.42 km/s
True Right ascension
09h 50m 52s
True Declination
0° 00' 00"
Sunlit
Object was in daylight at epoch
Visualization orbit readout
Latitude
Unknown
Longitude
Unknown
Altitude
Unknown
Speed
Unknown
Apparent Right ascension
Unknown
Apparent Declination
Unknown
Sunlit
N/A
Visualization observer readout
Local Sidereal Time
23:53:19
Azimuth
Unknown
Elevation
Unknown
Doppler factor
Unknown
Orbital elements
Apogee altitude
903.367 km
Perigee altitude
837.977 km
Semi-major axis
7,248.809 km
Eccentricity
0.00451
Inclination
70.0677°
RAAN
147.717°
Arg. of periapsis
81.2176°
True anomaly
278.89353°
Mean anomaly
279.4039°
Eccentric anomaly
279.14876°
Mean motion
3.51676 °/min
Orbital period
102.37 mins
BSTAR
-0.000052781

Documentation

Showing up to 5 results
|